Location: Foligno
(42.9600°N, 12.7050°E)
Time: 11:52:21
(UTC+02:00)

ISS - Pass Details

Date: 20 May 2018
Orbit: 402 x 407 km, 51.6° (Epoch: 27 May)

Event Time Altitude Azimuth Distance (km) Brightness Sun altitude
Rises 23:06:08 0° 248° (WSW) 2,311 0.1 -21.2°
Reaches altitude 10° 23:08:14 10° 253° (WSW) 1,453 -0.9 -21.4°
Maximum altitude 23:11:26 53° 331° (NNW) 503 -3.1 -21.7°
Drops below altitude 10° 23:14:38 10° 50° (NE) 1,458 -0.9 -21.9°
Sets 23:16:45 0° 55° (NE) 2,319 0.1 -22.1°
